Location: Newark
(47.4417°N, 1.1394°W)
Time: 08:51:21
(UTC+00:00)

Envisat - Pass Details

Date: 22 November 2019
Orbit: 764 x 766 km, 98.1° (Epoch: 08 December)

Event Time Altitude Azimuth Distance (km) Brightness Sun altitude
Rises 18:44:25 0° 190° (S) 3,219 6.4 -23.7°
Reaches altitude 10° 18:46:54 10° 200° (SSW) 2,298 5.7 -24.1°
Maximum altitude 18:51:29 34° 264° (W) 1,248 4.6 -24.9°
Drops below altitude 10° 18:56:06 10° 329° (NNW) 2,313 5.8 -25.7°
Sets 18:58:38 0° 339° (NNW) 3,244 6.5 -26.1°
